• Em Portugal
  • Lista de países
  • Para 7 dias
  • Temperatura da água
  • Mapas de satélite
  • Mapa do tempo
  • Widgets de tempo
  • user-avatar
    Iniciar Sessão

    Previsão horária em Adapazari

    Hoje, 15 Dezembro, Sexta-feira

    Tempo Temperatura Precipitação Vento Pressão Humidade
    00:00 +9°C° 0 mm 2 m/s 728 mmHg 71%
    01:00 +9°C° 0 mm 2 m/s 728 mmHg 72%
    02:00 +8°C° 0 mm 2 m/s 727 mmHg 73%
    03:00 +8°C° 0 mm 2 m/s 728 mmHg 74%
    04:00 +8°C° 0 mm 2 m/s 728 mmHg 75%
    05:00 +8°C° 0 mm 2 m/s 728 mmHg 75%
    06:00 +8°C° 0 mm 2 m/s 728 mmHg 76%
    07:00 +8°C° 0 mm 2 m/s 728 mmHg 76%
    08:00 +8°C° 0 mm 2 m/s 728 mmHg 77%
    09:00 +10°C° 0 mm 2 m/s 729 mmHg 71%
    10:00 +13°C° 0 mm 2 m/s 729 mmHg 65%
    11:00 +15°C° 0 mm 2 m/s 729 mmHg 59%
    12:00 +15°C° 0 mm 2 m/s 729 mmHg 56%
    13:00 +16°C° 0 mm 2 m/s 729 mmHg 53%
    14:00 +17°C° 0 mm 2 m/s 728 mmHg 50%
    15:00 +16°C° 0 mm 2 m/s 728 mmHg 54%
    16:00 +14°C° 0 mm 2 m/s 728 mmHg 59%
    17:00 +13°C° 0 mm 2 m/s 728 mmHg 63%
    18:00 +12°C° 0 mm 2 m/s 728 mmHg 64%
    19:00 +12°C° 0 mm 2 m/s 728 mmHg 65%
    20:00 +10°C° 0 mm 2 m/s 728 mmHg 66%
    21:00 +10°C° 0 mm 2 m/s 728 mmHg 67%
    22:00 +10°C° 0 mm 2 m/s 728 mmHg 67%
    23:00 +10°C° 0 mm 2 m/s 728 mmHg 67%

    Amanhã, 16 Dezembro, Sábado

    Tempo Temperatura Precipitação Vento Pressão Humidade
    00:00 +9°C° 0 mm 2 m/s 728 mmHg 68%
    01:00 +9°C° 0 mm 3 m/s 728 mmHg 68%
    02:00 +9°C° 0 mm 3 m/s 728 mmHg 68%
    03:00 +9°C° 0 mm 3 m/s 728 mmHg 69%
    04:00 +9°C° 0 mm 3 m/s 728 mmHg 70%
    05:00 +8°C° 0 mm 3 m/s 728 mmHg 71%
    06:00 +8°C° 0 mm 3 m/s 728 mmHg 72%
    07:00 +9°C° 0 mm 3 m/s 728 mmHg 73%
    08:00 +9°C° 0 mm 3 m/s 728 mmHg 74%
    09:00 +10°C° 0 mm 4 m/s 728 mmHg 70%
    10:00 +12°C° 0 mm 4 m/s 728 mmHg 65%
    11:00 +14°C° 0 mm 5 m/s 728 mmHg 61%
    12:00 +15°C° 0 mm 4 m/s 728 mmHg 58%
    13:00 +17°C° 0 mm 4 m/s 728 mmHg 56%
    14:00 +17°C° 0 mm 4 m/s 727 mmHg 54%
    15:00 +15°C° 0 mm 4 m/s 727 mmHg 58%
    16:00 +14°C° 0 mm 3 m/s 727 mmHg 62%
    17:00 +13°C° 0 mm 3 m/s 727 mmHg 66%
    18:00 +13°C° 0 mm 3 m/s 727 mmHg 67%
    19:00 +12°C° 0 mm 3 m/s 727 mmHg 67%
    20:00 +13°C° 0 mm 2 m/s 728 mmHg 68%
    21:00 +12°C° 0 mm 3 m/s 727 mmHg 69%
    22:00 +12°C° 0 mm 3 m/s 727 mmHg 70%
    23:00 +12°C° 0 mm 3 m/s 727 mmHg 71%

    Depois de amanhã, 17 Dezembro, Domingo

    Tempo Temperatura Precipitação Vento Pressão Humidade
    00:00 +12°C° 0,4 mm 3 m/s 727 mmHg 73%
    01:00 +12°C° 0,4 mm 3 m/s 727 mmHg 75%
    02:00 +11°C° 0,4 mm 3 m/s 727 mmHg 77%
    03:00 +11°C° 0,2 mm 3 m/s 726 mmHg 78%
    04:00 +11°C° 0,2 mm 3 m/s 726 mmHg 79%
    05:00 +11°C° 0,2 mm 3 m/s 726 mmHg 79%
    06:00 +11°C° 0 mm 3 m/s 726 mmHg 79%
    07:00 +11°C° 0 mm 3 m/s 726 mmHg 79%
    08:00 +11°C° 0 mm 3 m/s 726 mmHg 79%
    09:00 +12°C° 0 mm 4 m/s 726 mmHg 73%
    10:00 +14°C° 0 mm 4 m/s 726 mmHg 67%
    11:00 +15°C° 0 mm 5 m/s 726 mmHg 61%
    12:00 +15°C° 0,1 mm 5 m/s 726 mmHg 60%
    13:00 +16°C° 0,1 mm 5 m/s 725 mmHg 58%
    14:00 +16°C° 0,1 mm 6 m/s 724 mmHg 57%
    15:00 +15°C° 0,1 mm 5 m/s 724 mmHg 59%
    16:00 +15°C° 0,1 mm 5 m/s 724 mmHg 62%
    17:00 +14°C° 0,1 mm 4 m/s 724 mmHg 65%
    18:00 +13°C° 0,3 mm 4 m/s 725 mmHg 69%
    19:00 +13°C° 0,3 mm 4 m/s 725 mmHg 72%
    20:00 +12°C° 0,3 mm 4 m/s 726 mmHg 76%
    21:00 +12°C° 1,3 mm 4 m/s 726 mmHg 81%
    22:00 +11°C° 1,3 mm 3 m/s 727 mmHg 85%
    23:00 +10°C° 1,3 mm 2 m/s 728 mmHg 90%

    18 Dezembro, Segunda-feira

    Tempo Temperatura Precipitação Vento Pressão Humidade
    00:00 +10°C° 0,8 mm 2 m/s 728 mmHg 91%
    01:00 +10°C° 0,8 mm 2 m/s 728 mmHg 92%
    02:00 +9°C° 0,8 mm 2 m/s 729 mmHg 93%
    03:00 +9°C° 0,2 mm 2 m/s 729 mmHg 93%
    04:00 +9°C° 0,2 mm 2 m/s 729 mmHg 93%
    05:00 +8°C° 0,2 mm 2 m/s 729 mmHg 93%
    06:00 +8°C° 0,1 mm 2 m/s 730 mmHg 93%
    07:00 +8°C° 0,1 mm 2 m/s 730 mmHg 93%
    08:00 +8°C° 0,1 mm 2 m/s 731 mmHg 92%
    09:00 +8°C° 0,1 mm 2 m/s 731 mmHg 89%
    10:00 +8°C° 0,1 mm 2 m/s 731 mmHg 86%
    11:00 +8°C° 0,1 mm 2 m/s 731 mmHg 82%
    12:00 +8°C° 0,1 mm 2 m/s 730 mmHg 82%
    13:00 +8°C° 0,1 mm 2 m/s 730 mmHg 81%
    14:00 +8°C° 0,1 mm 2 m/s 729 mmHg 80%
    15:00 +8°C° 0,1 mm 2 m/s 729 mmHg 83%
    16:00 +7°C° 0,1 mm 2 m/s 729 mmHg 85%
    17:00 +7°C° 0,1 mm 2 m/s 729 mmHg 88%
    18:00 +7°C° 0,4 mm 2 m/s 729 mmHg 90%
    19:00 +6°C° 0,4 mm 2 m/s 729 mmHg 91%
    20:00 +6°C° 0,4 mm 2 m/s 729 mmHg 92%
    21:00 +6°C° 1 mm 2 m/s 730 mmHg 93%
    22:00 +6°C° 1 mm 2 m/s 730 mmHg 93%
    23:00 +6°C° 1 mm 2 m/s 730 mmHg 93%

    19 Dezembro, Terça-feira

    Tempo Temperatura Precipitação Vento Pressão Humidade
    00:00 +6°C° 1,2 mm 2 m/s 730 mmHg 94%
    01:00 +5°C° 1,2 mm 2 m/s 730 mmHg 94%
    02:00 +4°C° 1,2 mm 3 m/s 731 mmHg 94%
    03:00 +4°C° 0,7 mm 3 m/s 731 mmHg 94%
    04:00 +5°C° 0,7 mm 2 m/s 732 mmHg 93%
    05:00 +5°C° 0,7 mm 2 m/s 732 mmHg 93%
    06:00 +5°C° 0,3 mm 2 m/s 733 mmHg 93%
    07:00 +5°C° 0,3 mm 2 m/s 734 mmHg 92%
    08:00 +6°C° 0,3 mm 1 m/s 734 mmHg 92%
    09:00 +6°C° 0,1 mm 1 m/s 735 mmHg 89%
    10:00 +7°C° 0,1 mm 1 m/s 735 mmHg 85%
    11:00 +7°C° 0,1 mm 1 m/s 735 mmHg 82%
    12:00 +7°C° 0,1 mm 1 m/s 735 mmHg 80%
    13:00 +6°C° 0,1 mm 2 m/s 735 mmHg 79%
    14:00 +6°C° 0,1 mm 2 m/s 735 mmHg 77%
    15:00 +6°C° 0,1 mm 2 m/s 735 mmHg 81%
    16:00 +6°C° 0,1 mm 1 m/s 735 mmHg 84%
    17:00 +6°C° 0,1 mm 1 m/s 735 mmHg 87%
    18:00 +5°C° 0 mm 1 m/s 735 mmHg 89%
    19:00 +5°C° 0 mm 1 m/s 735 mmHg 91%
    20:00 +5°C° 0 mm 1 m/s 736 mmHg 92%
    21:00 +5°C° 0 mm 1 m/s 736 mmHg 93%
    22:00 +4°C° 0 mm 1 m/s 735 mmHg 93%
    23:00 +4°C° 0 mm 1 m/s 735 mmHg 93%

    20 Dezembro, Quarta-feira

    Tempo Temperatura Precipitação Vento Pressão Humidade
    00:00 +4°C° 0 mm 1 m/s 735 mmHg 92%
    01:00 +4°C° 0 mm 1 m/s 735 mmHg 92%
    02:00 +4°C° 0 mm 1 m/s 735 mmHg 91%
    03:00 +4°C° 0 mm 1 m/s 735 mmHg 90%
    04:00 +3°C° 0 mm 1 m/s 735 mmHg 90%
    05:00 +3°C° 0 mm 1 m/s 734 mmHg 89%
    06:00 +3°C° 0 mm 1 m/s 735 mmHg 89%
    07:00 +3°C° 0 mm 1 m/s 735 mmHg 88%
    08:00 +3°C° 0 mm 1 m/s 735 mmHg 87%
    09:00 +5°C° 0 mm 1 m/s 735 mmHg 81%
    10:00 +6°C° 0 mm 1 m/s 735 mmHg 75%
    11:00 +6°C° 0 mm 2 m/s 735 mmHg 70%
    12:00 +6°C° 0 mm 2 m/s 734 mmHg 69%
    13:00 +7°C° 0 mm 2 m/s 734 mmHg 68%
    14:00 +7°C° 0 mm 3 m/s 734 mmHg 67%
    15:00 +6°C° 0 mm 2 m/s 734 mmHg 72%
    16:00 +5°C° 0 mm 2 m/s 734 mmHg 78%
    17:00 +4°C° 0 mm 2 m/s 734 mmHg 84%
    18:00 +4°C° 0 mm 2 m/s 735 mmHg 86%
    19:00 +4°C° 0 mm 2 m/s 735 mmHg 88%
    20:00 +3°C° 0 mm 2 m/s 735 mmHg 91%
    21:00 +3°C° 0 mm 2 m/s 736 mmHg 91%
    22:00 +3°C° 0 mm 2 m/s 736 mmHg 92%
    23:00 +3°C° 0 mm 2 m/s 736 mmHg 93%
    Mostrar mais